TimeEDT,TemperatureF,Dew PointF,Humidity,Sea Level PressureIn,VisibilityMPH,Wind Direction,Wind SpeedMPH,Gust SpeedMPH,PrecipitationIn,Events,Conditions,WindDirDegrees,DateUTC
12:15 AM,35.6,32.0,87,30.24,10.0,Calm,Calm,-,N/A,,Unknown,0,2013-03-29 04:15:00
12:35 AM,35.6,32.0,87,30.24,10.0,Calm,Calm,-,N/A,,Unknown,0,2013-03-29 04:35:00
12:55 AM,33.8,32.0,93,30.24,10.0,Calm,Calm,-,N/A,,Unknown,0,2013-03-29 04:55:00
1:15 AM,33.8,33.8,100,30.24,10.0,Calm,Calm,-,N/A,,Unknown,0,2013-03-29 05:15:00
1:35 AM,33.8,32.0,93,30.23,10.0,Calm,Calm,-,N/A,,Unknown,0,2013-03-29 05:35:00
1:55 AM,33.8,32.0,93,30.23,10.0,Calm,Calm,-,N/A,,Unknown,0,2013-03-29 05:55:00
2:15 AM,33.8,32.0,93,30.24,10.0,Calm,Calm,-,N/A,,Unknown,0,2013-03-29 06:15:00
2:35 AM,33.8,32.0,93,30.24,10.0,Calm,Calm,-,N/A,,Unknown,0,2013-03-29 06:35:00
2:55 AM,33.8,32.0,93,30.23,10.0,Calm,Calm,-,N/A,,Unknown,0,2013-03-29 06:55:00
3:15 AM,32.0,32.0,100,30.23,10.0,Calm,Calm,-,N/A,,Unknown,0,2013-03-29 07:15:00
3:35 AM,33.8,33.8,100,30.23,10.0,Calm,Calm,-,N/A,,Unknown,0,2013-03-29 07:35:00
3:55 AM,33.8,33.8,100,30.22,10.0,Calm,Calm,-,N/A,,Unknown,0,2013-03-29 07:55:00
4:15 AM,32.0,32.0,100,30.22,10.0,Calm,Calm,-,N/A,,Unknown,0,2013-03-29 08:15:00
4:35 AM,32.0,32.0,100,30.22,10.0,Calm,Calm,-,N/A,,Unknown,0,2013-03-29 08:35:00
4:55 AM,32.0,32.0,100,30.22,10.0,Calm,Calm,-,N/A,,Unknown,0,2013-03-29 08:55:00
5:15 AM,33.8,33.8,100,30.22,10.0,Calm,Calm,-,N/A,,Unknown,0,2013-03-29 09:15:00
5:35 AM,33.8,33.8,100,30.22,10.0,Calm,Calm,-,N/A,,Unknown,0,2013-03-29 09:35:00
5:55 AM,33.8,33.8,100,30.22,10.0,Calm,Calm,-,N/A,,Unknown,0,2013-03-29 09:55:00
6:15 AM,33.8,33.8,100,30.22,10.0,Calm,Calm,-,N/A,,Unknown,0,2013-03-29 10:15:00
6:35 AM,33.8,33.8,100,30.22,10.0,Calm,Calm,-,N/A,,Unknown,0,2013-03-29 10:35:00
6:55 AM,33.8,33.8,100,30.22,10.0,Calm,Calm,-,N/A,,Unknown,0,2013-03-29 10:55:00
7:15 AM,33.8,33.8,100,30.22,10.0,Calm,Calm,-,N/A,,Unknown,0,2013-03-29 11:15:00
7:35 AM,33.8,33.8,100,30.23,10.0,Calm,Calm,-,N/A,,Unknown,0,2013-03-29 11:35:00
7:55 AM,33.8,33.8,100,30.23,10.0,Calm,Calm,-,N/A,,Unknown,0,2013-03-29 11:55:00
8:15 AM,33.8,33.8,100,30.24,10.0,Calm,Calm,-,N/A,,Unknown,0,2013-03-29 12:15:00
8:35 AM,33.8,33.8,100,30.24,10.0,Calm,Calm,-,N/A,,Unknown,0,2013-03-29 12:35:00
8:55 AM,33.8,33.8,100,30.24,10.0,Calm,Calm,-,N/A,,Unknown,0,2013-03-29 12:55:00
9:15 AM,33.8,33.8,100,30.24,10.0,Calm,Calm,-,N/A,,Unknown,0,2013-03-29 13:15:00
9:35 AM,35.6,33.8,93,30.24,10.0,WSW,4.6,-,N/A,,Unknown,250,2013-03-29 13:35:00
9:55 AM,35.6,33.8,93,30.24,10.0,West,4.6,-,N/A,,Unknown,260,2013-03-29 13:55:00
10:15 AM,35.6,33.8,93,30.24,10.0,West,5.8,-,N/A,,Unknown,260,2013-03-29 14:15:00
10:35 AM,37.4,33.8,87,30.24,10.0,WSW,5.8,-,N/A,,Unknown,250,2013-03-29 14:35:00
10:55 AM,37.4,33.8,87,30.24,10.0,WSW,3.5,-,N/A,,Unknown,250,2013-03-29 14:55:00
11:15 AM,39.2,35.6,87,30.24,10.0,Calm,Calm,-,N/A,,Unknown,0,2013-03-29 15:15:00
11:35 AM,41.0,35.6,81,30.23,10.0,Calm,Calm,-,N/A,,Unknown,0,2013-03-29 15:35:00
11:55 AM,42.8,35.6,76,30.23,10.0,WSW,3.5,-,N/A,,Unknown,250,2013-03-29 15:55:00
12:15 PM,44.6,35.6,71,30.22,10.0,Calm,Calm,-,N/A,,Unknown,0,2013-03-29 16:15:00
12:55 PM,46.4,33.8,62,30.21,10.0,West,6.9,-,N/A,,Unknown,280,2013-03-29 16:55:00
1:15 PM,44.6,32.0,61,30.20,10.0,West,6.9,-,N/A,,Unknown,280,2013-03-29 17:15:00
1:35 PM,44.6,30.2,57,30.20,10.0,West,10.4,-,N/A,,Unknown,280,2013-03-29 17:35:00
1:55 PM,46.4,33.8,62,30.19,10.0,West,11.5,-,N/A,,Unknown,260,2013-03-29 17:55:00
2:15 PM,48.2,30.2,50,30.18,10.0,West,10.4,-,N/A,,Unknown,270,2013-03-29 18:15:00
2:35 PM,46.4,30.2,53,30.18,10.0,NW,8.1,17.3,N/A,,Unknown,310,2013-03-29 18:35:00
2:55 PM,44.6,30.2,57,30.17,10.0,NW,5.8,-,N/A,,Unknown,310,2013-03-29 18:55:00
3:15 PM,48.2,30.2,50,30.16,10.0,WNW,8.1,18.4,N/A,,Unknown,300,2013-03-29 19:15:00
3:35 PM,48.2,28.4,46,30.15,10.0,NW,6.9,17.3,N/A,,Unknown,320,2013-03-29 19:35:00
3:55 PM,48.2,26.6,43,30.15,10.0,NW,10.4,17.3,N/A,,Unknown,310,2013-03-29 19:55:00
4:15 PM,48.2,28.4,46,30.15,10.0,WNW,5.8,-,N/A,,Unknown,300,2013-03-29 20:15:00
4:35 PM,48.2,26.6,43,30.15,10.0,NNW,10.4,-,N/A,,Unknown,330,2013-03-29 20:35:00
4:55 PM,48.2,28.4,46,30.14,10.0,NNW,9.2,-,N/A,,Unknown,330,2013-03-29 20:55:00
5:15 PM,48.2,26.6,43,30.14,10.0,NW,8.1,-,N/A,,Unknown,320,2013-03-29 21:15:00
5:35 PM,48.2,24.8,40,30.14,10.0,WNW,11.5,18.4,N/A,,Unknown,300,2013-03-29 21:35:00
5:55 PM,48.2,26.6,43,30.14,10.0,WNW,9.2,-,N/A,,Unknown,300,2013-03-29 21:55:00
6:15 PM,48.2,24.8,40,30.14,10.0,NW,10.4,-,N/A,,Unknown,320,2013-03-29 22:15:00
6:35 PM,46.4,24.8,43,30.14,10.0,WNW,6.9,-,N/A,,Unknown,300,2013-03-29 22:35:00
6:55 PM,46.4,23.0,40,30.14,10.0,WNW,11.5,17.3,N/A,,Unknown,300,2013-03-29 22:55:00
7:15 PM,46.4,23.0,40,30.15,10.0,WNW,9.2,-,N/A,,Unknown,300,2013-03-29 23:15:00
7:35 PM,46.4,23.0,40,30.15,10.0,NW,4.6,-,N/A,,Unknown,310,2013-03-29 23:35:00
7:55 PM,44.6,24.8,46,30.15,10.0,Calm,Calm,-,N/A,,Unknown,0,2013-03-29 23:55:00
8:15 PM,42.8,26.6,53,30.16,10.0,Calm,Calm,-,N/A,,Unknown,0,2013-03-30 00:15:00
8:35 PM,42.8,24.8,49,30.16,10.0,Calm,Calm,-,N/A,,Unknown,0,2013-03-30 00:35:00
8:55 PM,41.0,26.6,57,30.17,10.0,Calm,Calm,-,N/A,,Unknown,0,2013-03-30 00:55:00
9:15 PM,39.2,28.4,65,30.17,10.0,Calm,Calm,-,N/A,,Unknown,0,2013-03-30 01:15:00
9:35 PM,37.4,28.4,70,30.18,10.0,Calm,Calm,-,N/A,,Unknown,0,2013-03-30 01:35:00
9:55 PM,37.4,26.6,65,30.19,10.0,Calm,Calm,-,N/A,,Unknown,0,2013-03-30 01:55:00
10:15 PM,39.2,26.6,61,30.19,10.0,Calm,Calm,-,N/A,,Unknown,0,2013-03-30 02:15:00
10:35 PM,39.2,26.6,61,30.19,10.0,NNW,3.5,-,N/A,,Unknown,340,2013-03-30 02:35:00
10:55 PM,39.2,26.6,61,30.19,10.0,Calm,Calm,-,N/A,,Unknown,0,2013-03-30 02:55:00
11:15 PM,37.4,26.6,65,30.19,10.0,Calm,Calm,-,N/A,,Unknown,0,2013-03-30 03:15:00
11:35 PM,37.4,26.6,65,30.19,10.0,Calm,Calm,-,N/A,,Unknown,0,2013-03-30 03:35:00
11:55 PM,37.4,26.6,65,30.20,10.0,Calm,Calm,-,N/A,,Unknown,0,2013-03-30 03:55:00